Location: Juzet
(42.9779°N, 0.7597°E)
Time: 18:25:41
(UTC+00:00)

Cosmos 1140 Rocket - Pass Details

Date: 14 July 2020
Orbit: 744 x 768 km, 74.1° (Epoch: 12 August)

Event Time Altitude Azimuth Distance (km) Brightness Sun altitude
Exits shadow 02:32:15 25° 244° (WSW) 1,509 4.5 -16.8°
Maximum altitude 02:34:44 40° 297° (WNW) 1,117 4.2 -16.6°
Drops below altitude 10° 02:39:39 10° 7° (N) 2,310 6.9 -16.0°
Sets 02:42:12 0° 14° (NNE) 3,243 8.0 -15.7°
